Regional Weather Roundup
Issued by NWS State College, PA

Home | Current Version | Previous Version | Text Only | Print | Product List | Glossary On
Versions: 1 2 3 4 5 6 7 8 9 10 11 12 13 14 15 16 17 18 19 20 21 22 23 24 25 26 27 28 29 30 31 32 33 34 35 36 37 38 39 40 41 42 43 44 45 46 47 48 49 50
000
ASUS41 KCTP 260703
RWRCTP

REGIONAL WEATHER ROUNDUP
NATIONAL WEATHER SERVICE STATE COLLEGE PA
300 AM EDT SAT JUL 26 2014

Note: "fair" indicates few or no clouds below 12,000 feet with no
significant weather and/or obstructions to visibility.

* = STATION THAT DOES NOT REPORT PRECIPITATION /E.G. RAIN...SNOW...ETC/
    THUNDER OR FOG.

PAZ002>004-007>009-013>016-020>023-029>032-260800-
WESTERN PENNSYLVANIA

CITY           SKY/WX    TMP DP  RH WIND       PRES   REMARKS
ERIE           LGT RAIN  65  56  72 S8        29.98F
MEADVILLE      CLOUDY    61  55  81 SW6       30.03S
FRANKLIN*      CLOUDY    57  54  88 SW5       30.06R
NEW CASTLE       N/A     61  60  96 CALM      30.04S
BEAVER COUNTY  NOT AVBL
BUTLER*        CLOUDY    61  57  88 CALM      30.06R
PITTSBURGH INT LGT RAIN  65  61  87 NW7       30.03S
PITTSBURGH     LGT RAIN  67  56  67 W5        30.02S
INDIANA*       CLOUDY    63  57  82 CALM      30.08R
LATROBE        CLEAR     63  61  94 CALM      30.04S
WASHINGTON CO* CLOUDY    61  57  88 CALM      30.03F
$$

PAZ004>006-010>012-017>019-024>028-033>037-041-042-045-046-049>053-260800-
CENTRAL PENNSYLVANIA

CITY           SKY/WX    TMP DP  RH WIND       PRES   REMARKS
BRADFORD       MOCLDY    53  50  89 CALM      30.03F
DUBOIS         CLOUDY    59  54  83 CALM      30.03S
CLEARFIELD     CLOUDY    56  52  86 CALM      30.04R
JOHNSTOWN      LGT RAIN  60  53  77 SW5       30.06S
ALTOONA          N/A    N/A N/A N/A MISG      30.03S
STATE COLLEGE  CLOUDY    60  55  81 CALM      30.01F
WILLIAMSPORT   PTCLDY    59  53  80 CALM      29.99F
SELINSGROVE    CLOUDY    59  57  93 CALM      30.00F
FT INDIANTOWN  CLOUDY    58  57  96 CALM      30.01F
CAPITAL CITY   CLOUDY    63  57  81 CALM      29.99F
HARRISBURG     CLOUDY    67  55  65 E3        29.99F
YORK           CLOUDY    62  58  86 CALM      29.99F
$$

PAZ038>040-043-044-047-048-054-055-060>062-067>071-260800-
EASTERN PENNSYLVANIA

CITY           SKY/WX    TMP DP  RH WIND       PRES   REMARKS
SCRANTON       PTCLDY    58  52  80 SE3       30.01F
MOUNT POCONO   CLOUDY    57  53  86 W5        30.04F
ALLENTOWN      MOCLDY    61  56  83 CALM      30.01S
QUAKERTOWN*    MOSUNNY   57  57 100 CALM      30.02F
READING        CLOUDY    63  58  83 N3        30.00F
LANCASTER      CLOUDY    61  58  90 CALM      30.00F
COATESVILLE    CLOUDY    66  55  68 SW3       30.02F
POTTSTOWN      MOCLDY    60  56  86 CALM      30.02F
BLUE BELL      MOCLDY    61  59  94 CALM      30.00F
DOYLESTOWN     MOCLDY    62  55  77 S3        30.01S
WILLOW GROVE   NOT AVBL
NORTH PHILA    MOCLDY    67  57  70 CALM      30.02F
PHILADELPHIA   MOCLDY    70  59  68 SW7       30.01F
$$


USA.gov is the U.S. government's official web portal to all federal, state and local government web resources and services.